Time,TemperatureF,DewpointF,PressureIn,WindDirection,WindDirectionDegrees,WindSpeedMPH,WindSpeedGustMPH,Humidity,HourlyPrecipIn,Conditions,Clouds,dailyrainin,SoftwareType,DateUTC
2013-07-11 00:22:00,81.0,-99.9,-100.00,SSW,211,10.0,-999.0,111,0.00,,,-99.99,,2013-07-11 05:22:00,
2013-07-11 00:32:00,81.0,-99.9,-100.00,SSW,211,10.0,-999.0,111,0.00,,,-99.99,,2013-07-11 05:32:00,
2013-07-11 00:43:00,81.0,-99.9,-100.00,SSW,211,10.0,-999.0,111,0.00,,,-99.99,,2013-07-11 05:43:00,
2013-07-11 01:22:00,82.0,-99.9,-100.00,SSW,208,12.0,-999.0,105,0.00,,,-99.99,,2013-07-11 06:22:00,
2013-07-11 01:33:00,82.0,-99.9,-100.00,SSW,208,12.0,-999.0,105,0.00,,,-99.99,,2013-07-11 06:33:00,
2013-07-11 01:43:00,82.0,-99.9,-100.00,SSW,208,12.0,-999.0,105,0.00,,,-99.99,,2013-07-11 06:43:00,
2013-07-11 01:45:00,81.0,-99.9,-100.00,WSW,242,8.0,-999.0,103,0.00,,,-99.99,,2013-07-11 06:45:00,
2013-07-11 02:22:00,81.0,-99.9,-100.00,WSW,242,8.0,-999.0,103,0.00,,,-99.99,,2013-07-11 07:22:00,
2013-07-11 02:32:00,81.0,-99.9,-100.00,WSW,242,8.0,-999.0,103,0.00,,,-99.99,,2013-07-11 07:32:00,
2013-07-11 03:22:00,82.0,81.0,-100.00,WSW,252,7.0,-999.0,97,0.00,,,-99.99,,2013-07-11 08:22:00,
2013-07-11 03:34:00,82.0,81.0,-100.00,WSW,252,7.0,-999.0,97,0.00,,,-99.99,,2013-07-11 08:34:00,
2013-07-11 03:43:00,82.0,81.0,-100.00,WSW,252,7.0,-999.0,97,0.00,,,-99.99,,2013-07-11 08:43:00,
2013-07-11 04:21:00,81.0,80.0,-100.00,West,269,6.0,-999.0,96,0.00,,,-99.99,,2013-07-11 09:21:00,
2013-07-11 04:33:00,81.0,80.0,-100.00,West,269,6.0,-999.0,96,0.00,,,-99.99,,2013-07-11 09:33:00,
2013-07-11 04:43:00,81.0,80.0,-100.00,West,269,6.0,-999.0,96,0.00,,,-99.99,,2013-07-11 09:43:00,
2013-07-11 05:22:00,81.0,81.0,-100.00,WNW,286,5.0,-999.0,99,0.00,,,-99.99,,2013-07-11 10:22:00,
2013-07-11 05:33:00,81.0,81.0,-100.00,WNW,286,5.0,-999.0,99,0.00,,,-99.99,,2013-07-11 10:33:00,
2013-07-11 05:43:00,81.0,81.0,-100.00,WNW,286,5.0,-999.0,99,0.00,,,-99.99,,2013-07-11 10:43:00,
2013-07-11 06:22:00,79.0,-99.9,-100.00,WNW,303,4.0,-999.0,115,0.00,,,-99.99,,2013-07-11 11:22:00,
2013-07-11 06:33:00,79.0,-99.9,-100.00,WNW,303,4.0,-999.0,115,0.00,,,-99.99,,2013-07-11 11:33:00,
2013-07-11 06:43:00,79.0,-99.9,-100.00,WNW,303,4.0,-999.0,115,0.00,,,-99.99,,2013-07-11 11:43:00,
2013-07-11 07:22:00,79.0,-99.9,-100.00,WNW,293,6.0,-999.0,113,0.00,,,-99.99,,2013-07-11 12:22:00,
2013-07-11 07:33:00,79.0,-99.9,-100.00,WNW,293,6.0,-999.0,113,0.00,,,-99.99,,2013-07-11 12:33:00,
2013-07-11 07:43:00,79.0,-99.9,-100.00,WNW,293,6.0,-999.0,113,0.00,,,-99.99,,2013-07-11 12:43:00,
2013-07-11 07:45:00,80.0,-99.9,-100.00,WSW,251,8.0,-999.0,102,0.00,,,-99.99,,2013-07-11 12:45:00,
2013-07-11 08:24:00,80.0,-99.9,-100.00,WSW,251,8.0,-999.0,102,0.00,,,-99.99,,2013-07-11 13:24:00,
2013-07-11 08:35:00,80.0,-99.9,-100.00,WSW,251,8.0,-999.0,102,0.00,,,-99.99,,2013-07-11 13:35:00,
2013-07-11 08:45:00,76.0,-99.9,-100.00,SSW,192,13.0,-999.0,116,0.38,,,-99.99,,2013-07-11 13:45:00,
2013-07-11 09:26:00,76.0,-99.9,-100.00,SSW,192,13.0,-999.0,116,0.38,,,-99.99,,2013-07-11 14:26:00,
2013-07-11 09:36:00,76.0,-99.9,-100.00,SSW,192,13.0,-999.0,116,0.38,,,-99.99,,2013-07-11 14:36:00,
2013-07-11 09:45:00,75.0,-99.9,-100.00,SSW,193,24.0,-999.0,122,1.06,,,-99.99,,2013-07-11 14:45:00,
2013-07-11 10:38:00,75.0,-99.9,-100.00,SSW,193,24.0,-999.0,122,1.06,,,-99.99,,2013-07-11 15:38:00,
2013-07-11 10:45:00,73.0,-99.9,-100.00,South,187,20.0,-999.0,124,1.87,,,-99.99,,2013-07-11 15:45:00,
2013-07-11 11:27:00,73.0,-99.9,-100.00,South,187,20.0,-999.0,124,1.87,,,-99.99,,2013-07-11 16:27:00,
2013-07-11 11:36:00,73.0,-99.9,-100.00,South,187,20.0,-999.0,124,1.87,,,-99.99,,2013-07-11 16:36:00,
2013-07-11 11:45:00,74.0,-99.9,-100.00,SSW,213,18.0,-999.0,124,0.53,,,-99.99,,2013-07-11 16:45:00,
2013-07-11 12:27:00,74.0,-99.9,-100.00,SSW,213,18.0,-999.0,124,0.53,,,-99.99,,2013-07-11 17:27:00,
2013-07-11 12:41:00,74.0,-99.9,-100.00,SSW,213,18.0,-999.0,124,0.53,,,-99.99,,2013-07-11 17:41:00,
2013-07-11 12:45:00,74.0,-99.9,-100.00,SW,222,14.0,-999.0,124,0.99,,,-99.99,,2013-07-11 17:45:00,
2013-07-11 13:25:00,74.0,-99.9,-100.00,SW,222,14.0,-999.0,124,0.99,,,-99.99,,2013-07-11 18:25:00,
2013-07-11 13:37:00,74.0,-99.9,-100.00,SW,222,14.0,-999.0,124,0.99,,,-99.99,,2013-07-11 18:37:00,
2013-07-11 13:45:00,74.0,-99.9,-100.00,North,2,4.0,-999.0,123,0.17,,,-99.99,,2013-07-11 18:45:00,
2013-07-11 14:25:00,74.0,-99.9,-100.00,North,2,4.0,-999.0,123,0.17,,,-99.99,,2013-07-11 19:25:00,
2013-07-11 14:40:00,74.0,-99.9,-100.00,North,2,4.0,-999.0,123,0.17,,,-99.99,,2013-07-11 19:40:00,
2013-07-11 14:45:00,74.0,-99.9,-100.00,NW,322,6.0,-999.0,124,0.02,,,-99.99,,2013-07-11 19:45:00,
2013-07-11 15:40:00,74.0,-99.9,-100.00,NW,322,6.0,-999.0,124,0.02,,,-99.99,,2013-07-11 20:40:00,
2013-07-11 15:45:00,76.0,-99.9,-100.00,SW,234,4.0,-999.0,122,0.00,,,-99.99,,2013-07-11 20:45:00,
2013-07-11 16:26:00,76.0,-99.9,-100.00,SW,234,4.0,-999.0,122,0.00,,,-99.99,,2013-07-11 21:26:00,
2013-07-11 16:37:00,76.0,-99.9,-100.00,SW,234,4.0,-999.0,122,0.00,,,-99.99,,2013-07-11 21:37:00,
2013-07-11 17:27:00,76.0,-99.9,-100.00,NNW,334,8.0,-999.0,119,0.00,,,-99.99,,2013-07-11 22:27:00,
2013-07-11 17:36:00,76.0,-99.9,-100.00,NNW,334,8.0,-999.0,119,0.00,,,-99.99,,2013-07-11 22:36:00,
2013-07-11 17:45:00,76.0,-99.9,-100.00,NNE,17,5.0,-999.0,116,0.00,,,-99.99,,2013-07-11 22:45:00,
2013-07-11 18:26:00,76.0,-99.9,-100.00,NNE,17,5.0,-999.0,116,0.00,,,-99.99,,2013-07-11 23:26:00,
2013-07-11 18:38:00,76.0,-99.9,-100.00,NNE,17,5.0,-999.0,116,0.00,,,-99.99,,2013-07-11 23:38:00,
2013-07-11 18:45:00,77.0,-99.9,-100.00,SE,138,3.0,-999.0,113,0.00,,,-99.99,,2013-07-11 23:45:00,
2013-07-11 19:26:00,77.0,-99.9,-100.00,SE,138,3.0,-999.0,113,0.00,,,-99.99,,2013-07-12 00:26:00,
2013-07-11 19:38:00,77.0,-99.9,-100.00,SE,138,3.0,-999.0,113,0.00,,,-99.99,,2013-07-12 00:38:00,
2013-07-11 19:45:00,77.0,-99.9,-100.00,SE,140,4.0,-999.0,112,0.00,,,-99.99,,2013-07-12 00:45:00,
2013-07-11 20:28:00,77.0,-99.9,-100.00,SE,140,4.0,-999.0,112,0.00,,,-99.99,,2013-07-12 01:28:00,
2013-07-11 20:39:00,77.0,-99.9,-100.00,SE,140,4.0,-999.0,112,0.00,,,-99.99,,2013-07-12 01:39:00,
2013-07-11 20:45:00,77.0,-99.9,-100.00,SSW,198,4.0,-999.0,113,0.00,,,-99.99,,2013-07-12 01:45:00,
2013-07-11 21:28:00,77.0,-99.9,-100.00,SSW,198,4.0,-999.0,113,0.00,,,-99.99,,2013-07-12 02:28:00,
2013-07-11 21:37:00,77.0,-99.9,-100.00,SSW,198,4.0,-999.0,113,0.00,,,-99.99,,2013-07-12 02:37:00,
2013-07-11 21:45:00,76.0,-99.9,-100.00,WSW,242,4.0,-999.0,115,0.00,,,-99.99,,2013-07-12 02:45:00,
2013-07-11 22:27:00,76.0,-99.9,-100.00,WSW,242,4.0,-999.0,115,0.00,,,-99.99,,2013-07-12 03:27:00,
2013-07-11 22:39:00,76.0,-99.9,-100.00,WSW,242,4.0,-999.0,115,0.00,,,-99.99,,2013-07-12 03:39:00,
2013-07-11 23:22:00,76.0,-99.9,-100.00,WNW,301,3.0,-999.0,117,0.00,,,-99.99,,2013-07-12 04:22:00,
2013-07-11 23:32:00,76.0,-99.9,-100.00,WNW,301,3.0,-999.0,117,0.00,,,-99.99,,2013-07-12 04:32:00,
2013-07-11 23:43:00,76.0,-99.9,-100.00,WNW,301,3.0,-999.0,117,0.00,,,-99.99,,2013-07-12 04:43:00,